^^
Station Historical Data
 
Daily Summary for September 25, 2018 Units:  English    Metric   Both
« Previous Day
Next Day »
Daily Weekly Monthly Yearly Custom
  Current: High: Low: Average:
Temperature: 74.5 °F TemperatureF °F 68.7 °F 69.6 °F
Dew Point: 69.6 °F DewpointF °F 63.3 °F 64.1 °F
Humidity: 85% Humidity% 81% 82%
Wind Speed: 0mph WindSpeedMPHmph 0mph 0mph
Wind Gust: 0mph WindSpeedGustMPHmph - -
WindCalm - - North
Pressure: 30.16 in PressureIn in 30.14 in -
Precipitation: 0.34 in      
Historical Graphs
 
 
Tabular Data for September 25, 2018
Time Temperature Dew Point Pressure Wind Wind Speed Wind Gust Humidity Rainfall Rate (Hourly)
TemperatureF °F DewpointF °F PressureIn in Calm     Humidity% HourlyPrecipIn in
00:04 69.3 °F 64.6 °F 30.19 in Calm     85% 0.02 in
00:09 69.3 °F 64.6 °F 30.19 in Calm     85% 0.02 in
00:14 69.3 °F 64.6 °F 30.19 in Calm     85% 0.02 in
00:19 69.3 °F 64.6 °F 30.19 in Calm     85% 0.02 in
00:24 69.3 °F 64.6 °F 30.19 in Calm     85% 0.01 in
00:29 69.3 °F 64.6 °F 30.19 in Calm     85% 0.01 in
00:34 69.1 °F 64.4 °F 30.19 in Calm     85% 0.02 in
00:39 69.1 °F 64 °F 30.19 in Calm     84% 0.03 in
00:44 69.1 °F 64 °F 30.18 in Calm     84% 0.03 in
00:49 69.1 °F 64 °F 30.18 in Calm     84% 0.04 in
00:54 69.1 °F 64 °F 30.18 in Calm     84% 0.04 in
00:59 69.1 °F 64 °F 30.18 in Calm     84% 0.03 in
01:04 69.1 °F 64 °F 30.18 in Calm     84% 0.04 in
01:09 69.1 °F 64 °F 30.18 in Calm     84% 0.04 in
01:14 69.1 °F 64 °F 30.19 in Calm     84% 0.06 in
01:19 69.1 °F 64 °F 30.19 in Calm     84% 0.08 in
01:24 69.1 °F 64 °F 30.18 in Calm     84% 0.11 in
01:29 69.1 °F 64 °F 30.18 in Calm     84% 0.14 in
01:34 69.1 °F 64 °F 30.17 in Calm     84% 0.15 in
01:39 69.1 °F 64 °F 30.17 in Calm     84% 0.16 in
01:44 69.1 °F 64 °F 30.17 in Calm     84% 0.18 in
01:49 69.1 °F 63.7 °F 30.17 in Calm     83% 0.18 in
01:54 68.9 °F 63.5 °F 30.17 in Calm     83% 0.19 in
01:59 68.9 °F 63.5 °F 30.16 in Calm     83% 0.2 in
02:04 68.9 °F 63.5 °F 30.16 in Calm     83% 0.19 in
02:09 68.9 °F 63.5 °F 30.16 in Calm     83% 0.2 in
02:14 68.9 °F 63.5 °F 30.16 in Calm     83% 0.22 in
02:19 68.9 °F 63.5 °F 30.16 in Calm     83% 0.21 in
02:24 68.9 °F 63.5 °F 30.16 in Calm     83% 0.19 in
02:29 68.9 °F 63.5 °F 30.16 in Calm     83% 0.16 in
02:34 68.9 °F 63.5 °F 30.16 in Calm     83% 0.14 in
02:39 68.9 °F 63.5 °F 30.16 in Calm     83% 0.12 in
02:44 68.9 °F 63.5 °F 30.16 in Calm     83% 0.11 in
02:49 68.7 °F 63.3 °F 30.16 in Calm     83% 0.1 in
02:54 68.7 °F 63.3 °F 30.16 in Calm     83% 0.09 in
02:59 68.7 °F 63.3 °F 30.16 in Calm     83% 0.08 in
03:04 68.7 °F 63.3 °F 30.16 in Calm     83% 0.08 in
03:09 68.7 °F 63.3 °F 30.16 in Calm     83% 0.07 in
03:14 68.7 °F 63.3 °F 30.16 in Calm     83% 0.04 in
03:19 68.7 °F 63.3 °F 30.16 in Calm     83% 0.03 in
03:24 68.7 °F 63.3 °F 30.15 in Calm     83% 0.02 in
03:29 68.7 °F 63.3 °F 30.15 in Calm     83% 0.02 in
03:34 68.7 °F 63.3 °F 30.15 in Calm     83% 0.02 in
03:39 68.7 °F 63.3 °F 30.15 in Calm     83% 0.02 in
03:44 68.7 °F 63.3 °F 30.14 in Calm     83% 0.01 in
03:49 68.7 °F 63.3 °F 30.15 in Calm     83% 0.01 in
03:54 68.9 °F 63.5 °F 30.15 in Calm     83% 0.01 in
03:59 68.9 °F 63.5 °F 30.15 in Calm     83% 0.01 in
04:04 68.9 °F 63.5 °F 30.15 in Calm     83% 0 in
04:09 68.9 °F 63.5 °F 30.15 in Calm     83% 0 in
04:14 68.9 °F 63.5 °F 30.15 in Calm     83% 0 in
04:19 68.9 °F 63.5 °F 30.15 in Calm     83% 0 in
04:24 68.9 °F 63.5 °F 30.14 in Calm     83% 0 in
04:29 68.9 °F 63.5 °F 30.14 in Calm     83% 0 in
04:34 68.9 °F 63.5 °F 30.14 in Calm     83% 0 in
04:39 68.9 °F 63.5 °F 30.14 in Calm     83% 0 in
04:44 68.9 °F 63.5 °F 30.14 in Calm     83% 0 in
04:49 68.9 °F 63.5 °F 30.15 in Calm     83% 0 in
04:54 68.9 °F 63.5 °F 30.14 in Calm     83% 0 in
04:59 69.1 °F 63.7 °F 30.15 in Calm     83% 0.01 in
05:04 69.1 °F 63.7 °F 30.15 in Calm     83% 0.01 in
05:09 69.1 °F 63.7 °F 30.15 in Calm     83% 0.01 in
05:14 69.1 °F 63.7 °F 30.15 in Calm     83% 0.01 in
05:19 69.1 °F 63.7 °F 30.15 in Calm     83% 0.01 in
05:24 69.1 °F 63.7 °F 30.15 in Calm     83% 0.01 in
05:29 69.1 °F 63.7 °F 30.15 in Calm     83% 0.01 in
05:34 69.1 °F 63.7 °F 30.15 in Calm     83% 0.01 in
05:39 69.1 °F 63.7 °F 30.15 in Calm     83% 0.01 in
05:44 69.1 °F 63.7 °F 30.15 in Calm     83% 0.01 in
05:49 69.1 °F 63.7 °F 30.15 in Calm     83% 0.01 in
05:54 69.1 °F 63.7 °F 30.15 in Calm     83% 0.01 in
05:59 69.1 °F 63.7 °F 30.15 in Calm     83% 0 in
06:04 69.1 °F 63.7 °F 30.15 in Calm     83% 0 in
06:09 69.1 °F 63.7 °F 30.15 in Calm     83% 0 in
06:14 68.9 °F 63.5 °F 30.15 in Calm     83% 0 in
06:19 68.9 °F 63.5 °F 30.15 in Calm     83% 0 in
06:24 68.9 °F 63.5 °F 30.16 in Calm     83% 0 in
06:29 69.1 °F 63.7 °F 30.16 in Calm     83% 0 in
06:34 69.1 °F 63.7 °F 30.16 in Calm     83% 0 in
06:39 69.1 °F 63.7 °F 30.16 in Calm     83% 0 in
06:44 69.1 °F 63.7 °F 30.16 in Calm     83% 0 in
06:49 69.1 °F 63.7 °F 30.16 in Calm     83% 0 in
06:54 69.1 °F 63.7 °F 30.16 in Calm     83% 0 in
06:59 69.1 °F 63.7 °F 30.16 in Calm     83% 0 in
07:04 69.1 °F 63.7 °F 30.17 in Calm     83% 0 in
07:09 69.1 °F 63.7 °F 30.17 in Calm     83% 0 in
07:14 69.1 °F 63.7 °F 30.17 in Calm     83% 0 in
07:19 69.1 °F 63.7 °F 30.17 in Calm     83% 0 in
07:24 69.1 °F 63.7 °F 30.17 in Calm     83% 0 in
07:29 69.1 °F 63.7 °F 30.17 in Calm     83% 0 in
07:34 69.1 °F 63.3 °F 30.17 in Calm     82% 0 in
07:39 69.1 °F 63.3 °F 30.17 in Calm     82% 0 in
07:44 69.1 °F 63.3 °F 30.17 in Calm     82% 0 in
07:49 69.1 °F 63.3 °F 30.18 in Calm     82% 0 in
07:54 69.1 °F 63.3 °F 30.18 in Calm     82% 0 in
07:59 69.1 °F 63.3 °F 30.18 in Calm     82% 0 in
08:04 69.3 °F 63.5 °F 30.18 in Calm     82% 0 in
08:09 69.3 °F 63.5 °F 30.18 in Calm     82% 0 in
08:14 69.3 °F 63.5 °F 30.18 in Calm     82% 0 in
08:19 69.4 °F 63.7 °F 30.18 in Calm     82% 0 in
08:24 69.4 °F 63.7 °F 30.18 in Calm     82% 0 in
08:29 69.4 °F 63.7 °F 30.18 in Calm     82% 0 in
08:34 69.6 °F 63.9 °F 30.18 in Calm     82% 0 in
08:39 69.6 °F 63.9 °F 30.18 in Calm     82% 0 in
08:44 69.8 °F 64 °F 30.18 in Calm     82% 0 in
08:49 69.8 °F 64 °F 30.18 in Calm     82% 0 in
08:53 70 °F 64.2 °F 30.18 in Calm     82% 0 in
08:59 70 °F 64.2 °F 30.18 in Calm     82% 0.01 in
09:04 70.2 °F 64.4 °F 30.18 in Calm     82% 0.01 in
09:09 70.2 °F 64.4 °F 30.18 in Calm     82% 0.01 in
09:14 70.2 °F 64.4 °F 30.18 in Calm     82% 0.01 in
09:19 70.2 °F 64.4 °F 30.18 in Calm     82% 0.01 in
09:24 70.3 °F 64.6 °F 30.18 in Calm     82% 0.01 in
09:29 70.3 °F 64.6 °F 30.19 in Calm     82% 0.01 in
09:34 70.3 °F 64.6 °F 30.19 in Calm     82% 0.01 in
09:39 70.3 °F 64.6 °F 30.19 in Calm     82% 0.01 in
09:44 70.3 °F 64.6 °F 30.19 in Calm     82% 0.01 in
09:49 70.3 °F 64.6 °F 30.19 in Calm     82% 0.01 in
09:54 70.3 °F 64.6 °F 30.19 in Calm     82% 0.01 in
09:59 70.3 °F 64.6 °F 30.19 in Calm     82% 0 in
10:04 70.3 °F 64.6 °F 30.19 in Calm     82% 0 in
10:09 70.3 °F 64.6 °F 30.19 in Calm     82% 0 in
10:14 70.3 °F 64.6 °F 30.19 in Calm     82% 0 in
10:19 70.5 °F 64.8 °F 30.19 in Calm     82% 0 in
10:24 70.5 °F 64.8 °F 30.19 in Calm     82% 0 in
10:29 70.7 °F 64.9 °F 30.19 in Calm     82% 0 in
10:34 70.9 °F 64.8 °F 30.19 in Calm     81% 0 in
10:39 71.1 °F 64.9 °F 30.19 in Calm     81% 0 in
10:44 71.1 °F 64.9 °F 30.19 in Calm     81% 0 in
10:49 71.2 °F 65.1 °F 30.19 in Calm     81% 0 in
10:54 71.4 °F 65.3 °F 30.19 in Calm     81% 0 in
10:59 71.2 °F 65.1 °F 30.19 in Calm     81% 0 in
11:04 71.4 °F 65.3 °F 30.19 in Calm     81% 0 in
11:09 71.2 °F 65.1 °F 30.19 in Calm     81% 0 in
11:14 71.4 °F 65.3 °F 30.19 in Calm     81% 0 in
11:19 71.4 °F 65.3 °F 30.19 in Calm     81% 0 in
11:24 71.4 °F 65.3 °F 30.19 in Calm     81% 0 in
11:29 71.6 °F 65.5 °F 30.19 in Calm     81% 0 in
11:34 71.8 °F 65.7 °F 30.19 in Calm     81% 0 in
11:39 71.6 °F 65.5 °F 30.19 in Calm     81% 0 in
11:44 71.4 °F 65.3 °F 30.19 in Calm     81% 0 in
11:49 71.4 °F 65.3 °F 30.19 in Calm     81% 0 in
11:54 71.4 °F 65.3 °F 30.19 in Calm     81% 0 in
11:59 71.8 °F 65.7 °F 30.19 in Calm     81% 0 in
12:04 72 °F 65.8 °F 30.19 in Calm     81% 0 in
12:09 72 °F 65.8 °F 30.19 in Calm     81% 0 in
12:14 72.1 °F 66 °F 30.19 in Calm     81% 0 in
12:19 72.1 °F 66 °F 30.19 in Calm     81% 0 in
12:24 72.1 °F 66 °F 30.19 in Calm     81% 0 in
12:29 72.3 °F 66.6 °F 30.19 in Calm     82% 0 in
12:34 72.5 °F 66.7 °F 30.19 in Calm     82% 0 in
12:39 72.7 °F 66.9 °F 30.18 in Calm     82% 0 in
12:44 72.9 °F 67.1 °F 30.19 in Calm     82% 0 in
12:49 72.9 °F 67.5 °F 30.18 in Calm     83% 0 in
12:54 73 °F 67.6 °F 30.18 in Calm     83% 0 in
12:59 73 °F 67.6 °F 30.18 in Calm     83% 0 in
13:04 73.4 °F 68 °F 30.18 in Calm     83% 0 in
13:09 73.6 °F 68.2 °F 30.17 in Calm     83% 0 in
13:14 73.9 °F 68.4 °F 30.17 in Calm     83% 0 in
13:19 74.1 °F 68.9 °F 30.17 in Calm     84% 0 in
13:24 74.3 °F 69.1 °F 30.17 in Calm     84% 0 in
13:29 74.5 °F 69.3 °F 30.17 in Calm     84% 0 in
13:34 74.5 °F 69.6 °F 30.17 in Calm     85% 0 in
13:39 74.5 °F 69.6 °F 30.16 in Calm     85% 0 in
13:44 74.5 °F 69.6 °F 30.16 in Calm     85% 0 in
13:49 74.5 °F 69.6 °F 30.16 in Calm     85% 0 in
Ellijay Weather
Compliments of Weather Underground - 2 mb